Billings, MT

1:43 PM MDT on July 20, 2017 (GMT -0600)
Billings Logan International

Weather History for KBIL - September, 2013

Change the Weather History Date:

Thursday, September 26, 2013

  Actual Average Record
Temperature  
Mean Temperature 44 °F 56 °F  
Max Temperature 49 °F 68 °F 93 °F (2015)
Min Temperature 38 °F 44 °F 25 °F (1972)
Degree Days  
Heating Degree Days 21 10  
Month to date heating degree days 70 149  
Since 1 July heating degree days 70 186  
Cooling Degree Days 0 1  
Month to date cooling degree days 103 50  
Year to date cooling degree days 840 632  
Moisture  
Dew Point 38 °F    
Average Humidity 77    
Maximum Humidity 93    
Minimum Humidity 61    
Precipitation  
Precipitation 0.31 in 0.05 in 0.81 in (1941)
Month to date precipitation 3.63 1.12  
Year to date precipitation 11.81 11.17  
Snow  
Snow 0.00 in 0.10 in 1.10 in (1984)
Month to date snowfall T 0.8  
Since 1 July snowfall T 0.8  
Since 1 September snowfall T 0.8  
Snow Depth 0.00 in    
Sea Level Pressure  
Sea Level Pressure 29.88 in    
Wind  
Wind Speed 9 mph (NNW)    
Max Wind Speed 23 mph    
Max Gust Speed 28 mph    
Visibility 9 miles    
Events Rain    
T = Trace of Precipitation, MM = Missing Value Source: NWS Daily Summary

Daily Weather History Graph

Daily Weather History Graph

Search for Another Location

Airport or City:

Trip Planner

Search our weather history database for the weather conditions in past years. The results will help you decide how hot, cold, wet, or windy it might be!

Date:

Astronomy

Sep. 26, 2013 Rise Set
Actual Time 7:06 AM MDT 7:03 PM MDT
Civil Twilight 6:36 AM MDT 7:32 PM MDT
Nautical Twilight 6:02 AM MDT 8:07 PM MDT
Astronomical Twilight 5:26 AM MDT 8:43 PM MDT
Moon 11:49 PM MDT (9/26) 2:16 PM MDT (9/26)
Length of Visible Light 12h 56m
Length of Day
11h 56m
Waning Gibbous, 54% of the Moon is Illuminated
Sep 26
Waning Gibbous
Sep 26
Last Quarter
Oct 4
New
Oct 11
First Quarter
Oct 18
Full

Hourly Weather History & Observations

Time (MDT) Temp. Windchill Dew Point Humidity Pressure Visibility Wind Dir Wind Speed Gust Speed Precip Events Conditions
12:05 AM 46.0 °F 41.0 °F 45.0 °F 96% 29.72 in 5.0 mi ENE 10.4 mph - 0.03 in Rain Light Rain
12:34 AM 46.0 °F 39.3 °F 44.1 °F 93% 29.71 in 6.0 mi NE 16.1 mph - 0.07 in Rain Rain
12:53 AM 46.0 °F 43.9 °F 45.0 °F 96% 29.73 in 8.0 mi NE 4.6 mph - 0.09 in Rain Light Rain
1:17 AM 46.0 °F 42.5 °F 44.1 °F 93% 29.74 in 9.0 mi NNW 6.9 mph - 0.01 in Rain Light Rain
1:53 AM 42.1 °F 33.3 °F 39.9 °F 92% 29.75 in 10.0 mi NNW 19.6 mph - 0.08 in Rain Light Rain
2:44 AM 41.0 °F 33.1 °F 39.0 °F 93% 29.77 in 5.0 mi NNW 15.0 mph - 0.10 in Rain Heavy Rain
2:53 AM 41.0 °F 33.5 °F 39.0 °F 93% 29.78 in 6.0 mi NNW 13.8 mph - 0.14 in Rain Rain
3:53 AM 42.1 °F 36.1 °F 39.0 °F 89% 29.78 in 10.0 mi North 10.4 mph - 0.07 in   Overcast
4:53 AM 41.0 °F 36.4 °F 37.9 °F 89% 29.81 in 10.0 mi WNW 6.9 mph - N/A   Mostly Cloudy
5:10 AM 41.0 °F 34.7 °F 39.0 °F 93% 29.79 in 10.0 mi NNW 10.4 mph - N/A   Mostly Cloudy
5:40 AM 39.9 °F 33.9 °F 37.0 °F 89% 29.79 in 10.0 mi NNW 9.2 mph - N/A   Scattered Clouds
5:53 AM 39.9 °F 35.1 °F 37.0 °F 89% 29.82 in 10.0 mi NNW 6.9 mph - N/A   Scattered Clouds
6:53 AM 39.0 °F 33.4 °F 36.0 °F 89% 29.85 in 10.0 mi WSW 8.1 mph - N/A   Mostly Cloudy
7:11 AM 39.0 °F 33.4 °F 37.0 °F 93% 29.83 in 10.0 mi WSW 8.1 mph - N/A   Overcast
7:53 AM 39.9 °F 33.9 °F 36.0 °F 86% 29.86 in 10.0 mi WSW 9.2 mph - N/A   Overcast
8:34 AM 39.9 °F 35.8 °F 37.0 °F 89% 29.84 in 10.0 mi West 5.8 mph - N/A   Mostly Cloudy
8:53 AM 42.1 °F 36.1 °F 37.0 °F 82% 29.86 in 10.0 mi WNW 10.4 mph - N/A   Mostly Cloudy
9:43 AM 43.0 °F 39.5 °F 37.0 °F 80% 29.88 in 10.0 mi West 5.8 mph - N/A   Mostly Cloudy
9:53 AM 43.0 °F 40.3 °F 37.9 °F 82% 29.89 in 10.0 mi West 4.6 mph - N/A   Mostly Cloudy
10:53 AM 45.0 °F 43.5 °F 37.0 °F 74% 29.90 in 10.0 mi WNW 3.5 mph - N/A   Overcast
11:53 AM 46.9 °F - 36.0 °F 66% 29.91 in 10.0 mi Calm Calm - N/A   Overcast
12:53 PM 46.9 °F - 36.0 °F 66% 29.91 in 10.0 mi North 9.2 mph - N/A   Overcast
1:53 PM 46.9 °F - 37.0 °F 68% 29.93 in 10.0 mi NE 5.8 mph - N/A   Overcast
2:53 PM 46.0 °F 39.6 °F 37.9 °F 73% 29.95 in 10.0 mi North 15.0 mph - 0.00 in   Mostly Cloudy
3:53 PM 48.0 °F - 36.0 °F 63% 29.96 in 10.0 mi North 10.4 mph - N/A   Mostly Cloudy
4:53 PM 48.0 °F - 35.1 °F 61% 29.96 in 10.0 mi NE 10.4 mph - N/A   Mostly Cloudy
5:53 PM 48.0 °F - 36.0 °F 63% 29.98 in 10.0 mi NE 8.1 mph - N/A   Mostly Cloudy
6:53 PM 46.9 °F - 36.0 °F 66% 29.97 in 10.0 mi NE 8.1 mph - N/A   Scattered Clouds
7:53 PM 46.9 °F - 37.0 °F 68% 30.00 in 10.0 mi NE 4.6 mph - N/A   Overcast
8:53 PM 46.0 °F 41.4 °F 37.0 °F 71% 30.01 in 10.0 mi NNE 9.2 mph - N/A   Mostly Cloudy
9:53 PM 45.0 °F 40.1 °F 36.0 °F 71% 30.01 in 10.0 mi NNE 9.2 mph - N/A   Overcast
10:53 PM 44.1 °F 40.1 °F 35.1 °F 71% 30.01 in 10.0 mi NNE 6.9 mph - N/A   Overcast
11:53 PM 43.0 °F 38.8 °F 37.0 °F 80% 30.04 in 10.0 mi NNE 6.9 mph - 0.01 in Rain Light Rain